Change the Weather History Date:

Sunday, December 8, 2013

  Actual Average Record
Temperature  
Mean Temperature -12 °F -  
Max Temperature 3 °F 19 °F 46 °F (1984)
Min Temperature -28 °F 2 °F -28 °F (2013)
Degree Days  
Heating Degree Days 78    
Moisture  
Dew Point -14 °F    
Average Humidity 81    
Maximum Humidity 87    
Minimum Humidity 76    
Precipitation  
Precipitation 0.00 in - - ()
Sea Level Pressure  
Sea Level Pressure 30.15 in    
Wind  
Wind Speed 3 mph (SSE)    
Max Wind Speed 7 mph    
Max Gust Speed -    
Visibility 7 miles    
Events Snow    
Averages and records for this station are not official NWS values.
T = Trace of Precipitation, MM = Missing Value Source: NWS Daily Summary

Daily Weather History Graph

Daily Weather History Graph

Search for Another Location

Airport or City:

Trip Planner

Search our weather history database for the weather conditions in past years. The results will help you decide how hot, cold, wet, or windy it might be!

Date:

Astronomy

Dec. 08, 2013 Rise Set
Actual Time 7:54 AM CST 4:28 PM CST
Civil Twilight 7:19 AM CST 5:04 PM CST
Nautical Twilight 6:40 AM CST 5:43 PM CST
Astronomical Twilight 6:02 AM CST 6:20 PM CST
Moon 11:55 AM CST (12/8) 11:41 PM CST (12/8)
Length of Visible Light 9h 45m
Length of Day
8h 33m
Waxing Crescent, 40% of the Moon is Illuminated
Dec 8
Waxing Crescent
Dec 9
First Quarter
Dec 17
Full
Dec 25
Last Quarter
Jan 1
New

Hourly Weather History & Observations

Time (CST) Temp. Windchill Dew Point Humidity Pressure Visibility Wind Dir Wind Speed Gust Speed Precip Events Conditions
12:11 AM -19.3 °F - -24.0 °F 79% 30.39 in 10.0 mi Calm Calm - N/A   Clear
12:31 AM -21.1 °F - -25.8 °F 79% 30.37 in 10.0 mi Calm Calm - N/A   Clear
12:51 AM -23.1 °F -34.2 °F -27.4 °F 80% 30.37 in 10.0 mi South 3.5 mph - N/A   Clear
1:11 AM -25.4 °F -39.6 °F -29.4 °F 82% 30.37 in 10.0 mi SSW 4.6 mph - N/A   Clear
1:31 AM -20.7 °F -34.1 °F -25.8 °F 78% 30.36 in 10.0 mi South 4.6 mph - N/A   Clear
1:50 AM -21.6 °F -32.6 °F -26.7 °F 77% 30.36 in 10.0 mi South 3.5 mph - N/A   Clear
2:11 AM -24.7 °F - -29.2 °F 79% 30.34 in 10.0 mi Calm Calm - N/A   Clear
2:31 AM -22.9 °F - -27.4 °F 79% 30.34 in 10.0 mi Calm Calm - N/A   Clear
2:51 AM -23.6 °F - -28.1 °F 79% 30.34 in 10.0 mi Calm Calm - N/A   Clear
3:11 AM -24.9 °F -36.3 °F -29.4 °F 79% 30.34 in 10.0 mi SSE 3.5 mph - N/A   Clear
3:31 AM -26.7 °F -38.3 °F -31.2 °F 79% 30.33 in 10.0 mi SSE 3.5 mph - N/A   Scattered Clouds
3:51 AM -23.8 °F - -28.1 °F 80% 30.31 in 10.0 mi Calm Calm - N/A   Scattered Clouds
4:11 AM -28.1 °F - -33.3 °F 76% 30.31 in 10.0 mi Calm Calm - N/A   Clear
4:31 AM -24.9 °F -38.9 °F -29.2 °F 80% 30.31 in 10.0 mi SSE 4.6 mph - N/A   Scattered Clouds
4:50 AM -25.8 °F - -30.6 °F 78% 30.30 in 10.0 mi Calm Calm - N/A   Mostly Cloudy
5:11 AM -24.2 °F -35.4 °F -28.8 °F 79% 30.29 in 10.0 mi SSE 3.5 mph - N/A   Mostly Cloudy
5:31 AM -21.1 °F -34.5 °F -26.1 °F 77% 30.29 in 10.0 mi SSE 4.6 mph - N/A   Overcast
5:51 AM -19.3 °F -34.5 °F -24.7 °F 76% 30.28 in 10.0 mi SE 5.8 mph - N/A   Overcast
6:11 AM -18.8 °F - -23.8 °F 78% 30.27 in 10.0 mi Calm Calm - N/A   Overcast
6:31 AM -18.4 °F -28.9 °F -23.1 °F 79% 30.26 in 10.0 mi SE 3.5 mph - N/A   Overcast
6:51 AM -17.5 °F -27.8 °F -22.4 °F 79% 30.26 in 10.0 mi SE 3.5 mph - N/A   Overcast
7:11 AM -16.8 °F -27.0 °F -22.0 °F 77% 30.26 in 10.0 mi SSE 3.5 mph - N/A   Overcast
7:31 AM -17.9 °F -32.8 °F -22.9 °F 78% 30.25 in 10.0 mi SE 5.8 mph - N/A   Overcast
7:50 AM -17.5 °F -30.3 °F -22.2 °F 79% 30.24 in 10.0 mi SE 4.6 mph - N/A   Overcast
8:11 AM -16.8 °F -27.0 °F -22.0 °F 77% 30.24 in 10.0 mi SE 3.5 mph - N/A   Overcast
8:31 AM -16.6 °F -26.8 °F -21.5 °F 79% 30.24 in 10.0 mi SE 3.5 mph - N/A   Overcast
8:51 AM -16.1 °F -26.2 °F -21.1 °F 78% 30.23 in 10.0 mi SE 3.5 mph - N/A Snow Light Snow
9:11 AM -15.3 °F -25.4 °F -20.2 °F 79% 30.22 in 4.0 mi East 3.5 mph - N/A Snow Light Snow
9:31 AM -15.0 °F -27.4 °F -19.8 °F 79% 30.22 in 10.0 mi East 4.6 mph - N/A   Overcast
9:51 AM -13.5 °F -25.7 °F -18.4 °F 79% 30.21 in 10.0 mi ESE 4.6 mph - N/A Snow Light Snow
10:11 AM -11.6 °F -26.9 °F -16.1 °F 80% 30.20 in 7.0 mi SE 6.9 mph - N/A   Overcast
10:31 AM -10.1 °F -25.1 °F -14.8 °F 80% 30.20 in 10.0 mi SE 6.9 mph - N/A   Overcast
10:50 AM -8.7 °F -23.4 °F -13.4 °F 80% 30.19 in 4.0 mi SE 6.9 mph - N/A   Haze
11:11 AM -7.1 °F -21.4 °F -12.1 °F 79% 30.18 in 5.0 mi SE 6.9 mph - N/A   Haze
11:31 AM -6.2 °F -18.9 °F -11.2 °F 79% 30.17 in 7.0 mi SE 5.8 mph - N/A   Overcast
11:50 AM -5.4 °F -18.0 °F -10.3 °F 80% 30.15 in 4.0 mi SE 5.8 mph - N/A   Overcast
12:11 PM -4.9 °F -15.6 °F -9.6 °F 80% 30.14 in 3.0 mi SE 4.6 mph - N/A Snow Light Snow
12:31 PM -3.6 °F -14.1 °F -8.7 °F 79% 30.13 in 7.0 mi SE 4.6 mph - N/A   Overcast
12:51 PM -2.4 °F -15.8 °F -8.0 °F 77% 30.12 in 7.0 mi SSE 6.9 mph - N/A   Overcast
1:11 PM -1.8 °F -12.0 °F -7.1 °F 78% 30.11 in 2.5 mi ESE 4.6 mph - N/A Snow Light Snow
1:31 PM -1.7 °F -9.7 °F -6.7 °F 79% 30.09 in 2.5 mi ESE 3.5 mph - N/A Snow Light Snow
1:50 PM -0.9 °F -12.7 °F -6.0 °F 79% 30.08 in 4.0 mi ESE 5.8 mph - N/A Snow Light Snow
2:11 PM -0.4 °F -12.0 °F -5.3 °F 80% 30.07 in 2.5 mi ESE 5.8 mph - N/A Snow Light Snow
2:31 PM 0.3 °F -11.2 °F -4.5 °F 80% 30.06 in 2.5 mi ESE 5.8 mph - N/A Snow Light Snow
2:50 PM 1.0 °F -10.3 °F -3.6 °F 81% 30.06 in 2.5 mi SE 5.8 mph - N/A Snow Light Snow
3:11 PM 1.4 °F -8.3 °F -3.1 °F 81% 30.05 in 1.8 mi SE 4.6 mph - N/A Snow Light Snow
3:31 PM 2.1 °F -10.4 °F -2.2 °F 82% 30.04 in 2.0 mi SE 6.9 mph - N/A Snow Light Snow
3:51 PM 2.3 °F -8.8 °F -2.0 °F 82% 30.04 in 3.0 mi SE 5.8 mph - N/A Snow Light Snow
4:11 PM 2.8 °F -6.6 °F -1.3 °F 83% 30.03 in 2.5 mi SSE 4.6 mph - N/A Snow Light Snow
4:31 PM 2.8 °F -4.6 °F -0.9 °F 84% 30.03 in 2.0 mi SSE 3.5 mph - N/A Snow Light Snow
4:51 PM 3.2 °F -9.1 °F -0.9 °F 83% 30.02 in 2.0 mi SSE 6.9 mph - N/A Snow Light Snow
5:11 PM 3.2 °F -7.8 °F -1.3 °F 82% 30.02 in 5.0 mi SSE 5.8 mph - N/A Snow Light Snow
5:31 PM 3.2 °F -6.2 °F -0.8 °F 84% 30.02 in 4.0 mi South 4.6 mph - N/A Snow Light Snow
5:51 PM 3.0 °F -6.4 °F -0.9 °F 84% 30.01 in 4.0 mi SSE 4.6 mph - N/A Snow Light Snow
6:11 PM 1.9 °F -7.6 °F -2.0 °F 83% 30.01 in 7.0 mi SSE 4.6 mph - N/A Snow Light Snow
6:31 PM 1.4 °F -8.3 °F -2.6 °F 83% 30.00 in 10.0 mi SSE 4.6 mph - N/A   Mostly Cloudy
6:51 PM 1.8 °F -5.8 °F -2.2 °F 83% 30.00 in 3.0 mi South 3.5 mph - N/A Snow Light Snow
7:11 PM 0.3 °F - -3.3 °F 85% 29.99 in 7.0 mi Calm Calm - N/A Snow Light Snow
7:31 PM 0.5 °F - -2.7 °F 86% 29.99 in 10.0 mi Calm Calm - N/A   Overcast
7:51 PM 0.3 °F -7.5 °F -3.1 °F 85% 29.99 in 4.0 mi South 3.5 mph - N/A Snow Light Snow
8:11 PM -0.4 °F - -3.5 °F 87% 29.99 in 10.0 mi Calm Calm - N/A   Overcast
8:31 PM -0.6 °F -8.5 °F -4.0 °F 85% 29.98 in 4.0 mi South 3.5 mph - N/A   Overcast
8:51 PM -1.8 °F -12.0 °F -5.3 °F 85% 29.97 in 5.0 mi SSE 4.6 mph - N/A Snow Light Snow
9:11 PM -0.9 °F -8.9 °F -4.2 °F 86% 29.96 in 5.0 mi South 3.5 mph - N/A Snow Light Snow
9:31 PM -0.9 °F - -4.2 °F 86% 29.95 in 2.5 mi Calm Calm - N/A Snow Light Snow
9:51 PM -0.8 °F -8.7 °F -4.0 °F 86% 29.94 in 5.0 mi South 3.5 mph - N/A Snow Light Snow
10:11 PM -0.6 °F - -4.0 °F 85% 29.94 in 5.0 mi Calm Calm - N/A Snow Light Snow
10:31 PM -0.8 °F -8.7 °F -4.0 °F 86% 29.94 in 2.0 mi SSW 3.5 mph - N/A Snow Light Snow
10:51 PM -0.9 °F -8.9 °F -4.4 °F 85% 29.93 in 3.0 mi SSW 3.5 mph - N/A Snow Light Snow
11:11 PM -0.8 °F -10.8 °F -4.2 °F 85% 29.92 in 4.0 mi SSW 4.6 mph - N/A Snow Light Snow
11:31 PM -1.3 °F -11.4 °F -4.7 °F 85% 29.92 in 3.0 mi SSW 4.6 mph - N/A Snow Light Snow
11:51 PM -1.7 °F -11.8 °F -5.3 °F 85% 29.92 in 5.0 mi SSW 4.6 mph - N/A Snow Light Snow